Temp
6 6 6 6 5 5 4 4 4 4 4 4 5 5 6 6 6 6 6 7 7 7 7 7 7 7 7 8 8 8 8 9 9 10 10 10 11 11
4 5 5 5 5 5 4 4 3 3 3 4 4 4 5 5 5 5 6 6 6 7 7 7 7 7 7 7 8 8 9 9 9 9 9 10 10 10
3 3 3 4 4 4 4 3 3 2 2 3 3 4 5 5 5 4 4 5 6 6 7 7 7 7 7 8 8 8 8 9 9 9 9 9 9 10
1 1 2 2 2 3 3 3 3 2 1 1 2 3 3 3 4 4 4 4 4 5 5 6 6 6 6 7 8 8 9 9 9 9 9 9 9 9
-0 0 0 1 1 1 2 2 3 2 2 0 1 1 2 3 3 4 4 4 4 4 4 4 5 5 5 6 7 7 7 8 9 9 9 9 9 9
-1 -0 -1 -1 -0 -0 0 1 2 1 1 0 0 1 1 1 3 3 3 4 4 3 3 3 3 4 5 6 6 7 7 7 8 8 8 9 9 9
-1 -1 -1 -1 -1 -1 -1 -0 -0 -2 -1 -1 -1 -0 -0 -0 1 2 2 3 3 3 3 3 3 4 4 4 4 6 6 6 6 6 7 8 8 8
-2 -1 -1 -1 -1 -1 -1 -2 -2 -2 -2 -2 -2 -1 -1 -1 -1 -0 1 1 2 2 3 3 3 3 4 4 5 6 6 6 6 6 6 7 8 8
-2 -2 -1 -1 -1 -1 -2 -2 -2 -2 -2 -3 -3 -2 -1 -1 -1 -1 -0 0 1 1 1 2 2 3 3 4 5 5 6 6 6 6 7 7 7 8
-2 -2 -2 -2 -2 -2 -2 -2 -1 -2 -2 -3 -3 -3 -3 -2 -2 -1 -1 -1 0 0 1 1 2 2 2 4 4 5 5 5 6 6 6 6 7 7
-2 -2 -2 -2 -2 -2 -3 -2 -2 -2 -2 -3 -3 -3 -3 -3 -2 -2 -1 -1 -1 -0 1 1 2 2 2 4 3 3 3 4 5 5 6 6 6 6
-2 -2 -2 -2 -2 -2 -3 -3 -3 -3 -3 -3 -3 -3 -4 -4 -3 -2 -2 -2 -1 -0 0 1 1 1 2 2 3 3 4 3 3 4 5 5 6 6
-3 -3 -2 -3 -3 -3 -3 -3 -3 -3 -3 -4 -3 -3 -3 -3 -4 -3 -2 -2 -2 -1 0 0 1 1 1 1 2 3 3 4 4 4 4 5 5 6
-4 -4 -3 -3 -3 -3 -3 -3 -3 -4 -4 -4 -4 -4 -4 -4 -3 -3 -3 -2 -2 -1 -1 -0 0 0 1 0 0 1 2 3 3 4 4 4 4 5
-4 -4 -4 -4 -3 -3 -3 -3 -4 -4 -4 -4 -4 -4 -4 -4 -4 -4 -4 -3 -2 -1 -1 -1 -0 0 0 0 -0 1 1 2 3 3 3 4 4 3
-5 -5 -5 -5 -4 -4 -4 -4 -4 -5 -5 -5 -5 -5 -5 -5 -5 -4 -4 -4 -3 -2 -2 -1 -0 -0 -0 -1 -0 -0 0 1 2 2 2 2 3 3
-5 -5 -5 -5 -5 -5 -5 -5 -5 -5 -5 -5 -6 -6 -6 -6 -5 -4 -5 -4 -4 -3 -2 -1 -1 -1 -1 -1 -1 -0 -0 1 1 1 1 1 1 1
-6 -6 -6 -6 -5 -5 -5 -5 -6 -7 -6 -6 -6 -6 -6 -6 -5 -5 -5 -4 -4 -3 -3 -2 -2 -1 -1 -1 -1 -1 -1 0 1 1 0 0 1 0
-6 -6 -6 -6 -6 -6 -6 -7 -7 -7 -6 -6 -6 -6 -6 -6 -5 -5 -5 -4 -4 -4 -3 -2 -2 -2 -2 -2 -1 -2 -2 -2 -1 -1 -0 -0 -0 -1
-6 -6 -6 -6 -6 -6 -6 -6 -6 -6 -6 -7 -7 -7 -6 -6 -5 -6 -6 -5 -4 -4 -3 -3 -2 -2 -2 -2 -2 -2 -3 -3 -2 -2 -2 -2 -2 -2
-7 -6 -6 -6 -6 -6 -6 -6 -6 -6 -7 -7 -6 -6 -6 -6 -6 -6 -6 -5 -5 -4 -3 -3 -2 -2 -2 -2 -3 -3 -4 -4 -3 -2 -2 -3 -3 -3
-6 -7 -7 -6 -6 -7 -7 -7 -7 -7 -7 -7 -7 -7 -6 -6 -6 -6 -6 -5 -5 -4 -4 -3 -2 -2 -3 -3 -3 -4 -5 -5 -4 -3 -4 -4 -3 -3
-6 -7 -7 -7 -7 -7 -7 -7 -7 -7 -7 -7 -7 -7 -6 -6 -7 -6 -6 -5 -5 -4 -4 -4 -3 -3 -3 -4 -4 -5 -6 -5 -5 -5 -5 -5 -4 -4
Height
1483 1481 1478 1477 1475 1474 1474 1473 1471 1465 1458 1458 1459 1459 1461 1461 1460 1459 1459 1457 1456 1456 1458 1458 1458 1457 1457 1458 1459 1459 1460 1461 1461 1465 1466 1466 1469 1471
1477 1474 1472 1470 1467 1466 1465 1464 1464 1462 1455 1456 1453 1454 1455 1454 1455 1455 1454 1452 1451 1451 1450 1449 1450 1450 1451 1452 1452 1450 1452 1452 1453 1456 1458 1458 1460 1462
1470 1467 1465 1464 1460 1459 1458 1457 1455 1454 1450 1446 1446 1447 1446 1447 1448 1447 1447 1446 1444 1442 1441 1442 1443 1443 1442 1443 1443 1442 1443 1443 1445 1447 1449 1450 1452 1453
1462 1460 1458 1457 1454 1453 1450 1448 1447 1446 1444 1440 1439 1439 1438 1438 1439 1439 1439 1438 1437 1438 1437 1436 1433 1432 1434 1434 1433 1434 1434 1435 1436 1438 1439 1441 1444 1444
1454 1452 1450 1449 1446 1446 1444 1441 1439 1437 1436 1434 1431 1433 1433 1432 1431 1431 1431 1431 1430 1429 1428 1427 1426 1426 1427 1426 1425 1425 1425 1427 1428 1430 1430 1432 1435 1435
1447 1445 1443 1442 1440 1438 1436 1434 1432 1430 1428 1426 1424 1424 1425 1425 1425 1424 1423 1423 1424 1424 1422 1422 1421 1419 1418 1417 1417 1416 1416 1418 1417 1421 1421 1422 1425 1427
1438 1437 1435 1434 1433 1431 1428 1426 1424 1423 1422 1420 1419 1419 1418 1418 1419 1420 1418 1416 1416 1417 1415 1414 1413 1411 1411 1410 1409 1409 1409 1411 1410 1413 1413 1413 1416 1419
1430 1429 1427 1427 1426 1424 1422 1420 1419 1416 1415 1414 1413 1412 1412 1412 1413 1413 1413 1412 1410 1408 1408 1407 1406 1404 1405 1403 1402 1401 1402 1404 1405 1407 1406 1407 1409 1411
1423 1421 1419 1418 1417 1416 1415 1413 1411 1410 1409 1408 1406 1405 1404 1405 1406 1405 1405 1406 1403 1404 1404 1401 1401 1400 1400 1398 1396 1395 1395 1398 1400 1401 1401 1403 1403 1407
1414 1412 1411 1409 1408 1409 1407 1405 1404 1402 1402 1401 1400 1399 1399 1398 1397 1397 1396 1395 1394 1394 1396 1393 1394 1393 1393 1392 1390 1388 1389 1392 1394 1396 1397 1397 1397 1400
1404 1403 1402 1401 1399 1401 1400 1397 1395 1394 1395 1394 1393 1392 1392 1391 1391 1390 1388 1387 1385 1385 1387 1386 1386 1385 1384 1383 1383 1383 1384 1386 1389 1390 1390 1391 1392 1394
1394 1392 1392 1392 1390 1392 1392 1390 1387 1386 1387 1386 1385 1385 1384 1384 1384 1383 1382 1380 1379 1377 1379 1380 1380 1380 1379 1378 1378 1379 1380 1381 1382 1383 1384 1386 1387 1388
1384 1382 1381 1383 1383 1383 1383 1382 1380 1380 1378 1378 1378 1377 1376 1375 1375 1375 1374 1374 1372 1370 1373 1374 1372 1373 1374 1375 1375 1375 1376 1377 1377 1376 1377 1380 1381 1383
1377 1375 1373 1374 1374 1374 1374 1374 1374 1374 1372 1371 1371 1369 1367 1366 1366 1366 1365 1364 1363 1363 1366 1366 1366 1367 1369 1369 1370 1371 1371 1372 1371 1371 1372 1374 1375 1378
1369 1367 1366 1365 1364 1364 1364 1365 1365 1365 1365 1364 1362 1360 1360 1358 1357 1356 1355 1354 1354 1354 1356 1357 1358 1361 1361 1362 1363 1365 1366 1366 1368 1367 1367 1368 1370 1372
1358 1357 1357 1356 1356 1355 1355 1355 1355 1356 1356 1355 1352 1350 1350 1349 1348 1348 1348 1346 1346 1345 1347 1349 1350 1354 1354 1355 1357 1359 1360 1361 1362 1362 1362 1362 1363 1365
1348 1347 1345 1346 1345 1344 1344 1344 1345 1345 1345 1345 1344 1342 1340 1339 1338 1341 1341 1340 1339 1338 1339 1342 1343 1347 1347 1349 1351 1353 1354 1355 1356 1356 1357 1356 1357 1359
1339 1336 1334 1334 1333 1334 1334 1334 1335 1333 1334 1335 1334 1333 1332 1331 1330 1332 1333 1332 1331 1331 1332 1333 1336 1339 1341 1342 1345 1346 1348 1348 1350 1350 1350 1351 1352 1354
1328 1325 1324 1324 1323 1324 1324 1325 1324 1325 1325 1324 1324 1324 1324 1323 1324 1323 1324 1323 1322 1323 1324 1326 1329 1330 1333 1335 1339 1341 1342 1343 1344 1344 1345 1346 1348 1350
1317 1316 1315 1314 1314 1314 1315 1315 1315 1315 1315 1315 1315 1314 1314 1314 1315 1315 1315 1314 1314 1315 1316 1317 1320 1323 1325 1329 1331 1335 1338 1338 1339 1340 1341 1342 1344 1347
1307 1306 1306 1305 1305 1306 1305 1305 1305 1305 1306 1306 1305 1305 1305 1306 1306 1306 1306 1306 1307 1307 1308 1309 1312 1318 1320 1324 1326 1329 1333 1334 1336 1337 1338 1340 1342 1343
1298 1298 1297 1296 1297 1296 1296 1296 1296 1297 1297 1297 1297 1297 1297 1298 1297 1297 1297 1298 1299 1300 1302 1304 1307 1311 1315 1318 1321 1324 1329 1330 1332 1333 1335 1337 1339 1339
1289 1289 1288 1288 1288 1288 1287 1288 1288 1288 1288 1289 1289 1289 1289 1289 1289 1288 1289 1290 1291 1293 1296 1299 1302 1306 1310 1313 1317 1320 1324 1326 1328 1329 1332 1333 1335 1336
Wind_Speed
25 24 24 24 23 22 21 22 22 28 31 30 29 27 24 20 18 21 22 24 26 27 27 28 30 29 29 28 30 30 31 31 32 34 35 35 35 34
28 27 27 26 26 25 25 23 22 25 35 30 33 31 31 31 28 28 28 32 31 32 32 32 34 34 34 34 35 33 33 32 32 31 32 34 36 34
27 27 29 28 29 29 27 26 25 23 28 36 34 34 33 31 30 31 30 28 29 30 30 33 35 37 38 38 36 35 34 33 33 32 32 31 33 35
30 29 29 26 27 28 29 30 29 28 26 29 34 33 27 26 31 32 30 32 29 24 23 24 26 28 30 31 32 34 35 35 33 34 33 32 32 32
30 29 28 27 28 26 26 29 30 29 29 26 31 28 30 32 30 32 30 29 30 30 24 22 23 24 26 27 27 30 31 33 33 32 33 33 33 32
30 29 28 29 29 27 26 26 26 28 28 29 29 32 30 28 30 29 29 27 27 27 29 23 23 24 26 23 24 25 25 27 29 32 32 34 33 30
28 28 28 27 25 24 25 24 23 21 23 26 26 26 23 22 21 25 27 25 24 25 26 26 25 22 19 18 20 22 22 24 25 27 30 32 30 28
30 29 28 26 24 22 21 20 21 22 26 27 29 29 28 23 21 22 25 28 29 27 24 31 31 30 25 23 22 21 21 21 21 22 23 25 28 27
31 30 29 27 25 23 22 21 22 20 19 24 29 31 31 30 30 30 28 30 31 30 31 34 32 34 30 25 20 19 20 19 20 17 17 21 23 25
29 29 28 29 27 25 24 24 24 22 20 18 20 22 23 25 27 31 32 34 32 30 27 33 31 32 32 23 17 19 20 21 20 16 18 20 21 22
30 29 28 28 28 24 24 25 25 25 22 20 23 22 23 25 26 28 28 30 32 29 29 29 29 28 30 22 13 13 15 17 22 22 20 19 20 22
32 31 28 27 27 24 24 24 26 27 24 24 25 26 26 27 27 28 29 31 30 28 28 29 29 23 20 15 11 10 9 14 21 22 21 22 18 20
29 30 28 25 24 24 23 25 27 26 26 24 26 29 31 28 26 23 25 28 32 31 27 27 22 24 21 20 17 14 15 14 16 17 22 20 17 21
29 29 29 28 26 25 28 29 27 24 26 28 29 31 35 35 32 31 27 29 29 29 26 27 27 27 26 27 25 21 15 13 13 15 17 19 18 19
30 30 29 30 29 30 32 33 29 27 28 31 35 37 37 39 33 29 25 28 28 27 28 26 28 28 27 26 25 25 20 17 17 15 16 20 20 21
31 29 29 32 31 31 32 33 33 32 35 34 38 39 36 34 30 26 27 27 27 28 27 26 28 28 25 24 24 24 22 22 18 17 16 16 19 21
32 33 33 32 32 34 37 39 38 36 34 31 30 32 33 34 31 25 28 29 29 28 26 27 31 30 27 24 25 25 22 21 21 20 19 18 17 19
32 34 35 35 35 36 36 34 30 30 31 28 27 29 29 29 27 27 28 29 29 30 26 27 29 28 27 26 26 27 24 22 24 23 21 19 19 19
31 33 34 33 33 31 31 31 32 30 30 28 28 31 31 32 28 29 32 33 30 30 28 28 30 31 30 28 25 25 21 19 17 18 20 19 19 18
32 33 34 34 33 33 33 33 33 32 31 28 28 29 31 29 28 31 31 26 26 26 28 28 28 30 30 28 26 22 20 19 18 16 16 17 17 16
28 28 27 26 26 27 28 28 27 27 26 26 27 26 25 25 29 31 29 26 25 27 28 28 24 22 24 24 23 23 20 17 17 15 14 15 16 17
26 26 26 26 26 25 26 26 26 25 26 25 27 27 26 29 32 32 27 26 25 26 25 25 25 25 24 25 24 21 17 15 15 15 14 15 13 11
28 27 26 25 24 23 23 23 24 25 26 25 25 25 26 28 29 25 24 25 23 24 26 26 22 22 22 23 22 19 18 15 14 13 15 16 16 13
Wind_Direction
289 287 286 286 288 288 280 275 279 289 290 291 294 297 293 291 279 266 259 256 258 259 262 262 261 264 266 266 265 262 262 260 256 254 251 250 251 251
292 289 285 283 282 282 283 282 274 273 280 280 284 287 288 289 289 284 276 263 261 261 262 264 265 265 268 270 270 264 263 260 257 256 255 252 251 251
285 284 283 284 281 281 282 280 278 277 277 277 276 278 281 284 287 291 292 282 270 268 270 267 265 264 265 266 266 264 261 258 257 256 254 253 251 250
287 283 282 278 276 276 278 281 281 278 276 281 281 279 285 282 281 285 289 290 284 274 270 273 265 266 266 265 263 262 260 259 256 255 253 252 253 250
285 283 281 280 283 282 278 277 277 278 279 280 280 280 275 276 283 283 278 279 291 291 285 284 272 265 262 265 266 261 260 260 260 258 254 251 249 250
281 279 278 281 283 282 281 280 281 277 276 281 285 284 285 282 273 290 284 280 281 289 287 284 286 279 267 264 264 264 261 260 259 259 256 247 245 249
285 281 278 280 281 282 286 284 283 282 282 283 288 292 291 294 281 271 285 286 285 278 283 291 294 295 278 270 277 269 261 268 269 263 256 246 242 246
287 284 282 280 280 283 287 283 281 283 273 275 278 278 280 286 289 283 279 286 282 282 283 290 299 296 296 286 277 270 256 264 258 262 256 243 240 245
283 281 280 279 281 284 288 287 283 283 281 271 273 274 279 280 283 282 279 273 278 276 283 285 283 287 292 294 269 265 249 250 245 248 252 248 242 244
280 279 279 279 277 281 287 284 283 282 283 287 280 278 279 281 279 278 277 275 274 277 274 277 283 285 290 291 265 265 246 242 244 244 246 246 244 242
283 280 276 277 276 278 281 284 285 280 283 282 284 279 272 272 275 280 276 278 275 274 278 278 279 287 295 289 259 273 264 251 243 244 247 251 247 241
287 284 281 277 277 274 272 281 285 285 287 281 282 287 286 285 278 263 273 275 278 271 269 270 271 276 296 293 259 253 266 261 253 250 252 249 253 249
287 285 283 282 277 275 272 280 280 286 286 283 277 282 285 288 288 281 272 273 273 270 261 260 261 273 275 263 258 257 270 281 265 256 249 252 250 249
286 290 289 284 280 273 276 275 279 279 281 282 281 283 285 285 284 287 275 270 269 269 265 263 267 266 268 267 259 259 260 268 282 262 249 245 249 245
283 283 282 280 276 274 270 271 279 272 275 277 280 282 283 284 288 287 282 270 265 263 256 257 259 259 260 256 252 255 268 265 275 282 260 245 242 237
285 283 276 274 272 271 269 271 274 272 281 275 277 281 284 282 279 279 284 280 282 272 254 256 248 252 258 248 251 254 257 262 263 279 281 260 245 244
290 287 282 276 269 264 265 268 273 273 271 275 277 278 278 277 272 273 278 281 274 277 272 252 246 250 246 248 247 248 252 255 266 275 273 266 258 247
279 277 275 273 272 271 272 275 275 273 279 282 278 275 280 276 273 272 274 274 273 271 268 260 251 244 242 240 240 246 249 258 268 272 267 263 256 248
272 271 272 273 271 266 266 267 267 267 280 282 279 275 275 276 268 273 279 277 265 262 263 262 249 235 232 234 241 242 254 263 269 256 253 250 249 243
271 271 272 272 271 272 273 275 276 277 277 276 274 274 269 264 267 272 282 268 269 265 261 256 250 243 232 236 239 251 259 266 252 261 248 241 240 235
283 282 280 277 275 274 273 273 273 272 273 273 273 275 270 261 272 274 277 266 266 264 255 251 243 239 236 236 240 249 255 250 247 250 239 231 230 228
286 282 281 279 277 275 274 272 272 270 268 265 269 271 271 268 273 280 263 260 263 258 251 247 240 232 227 231 240 245 238 239 242 236 219 221 221 223
285 284 282 280 280 276 273 270 271 269 269 269 273 272 269 271 279 269 256 262 260 251 241 236 225 219 224 228 238 234 225 230 229 220 214 214 221 230